Current weather by "City, St" or "zip code"  
 
Advertise Here

Current Conditions: Morris Muni-James R Washburn Field Airport, IL

Fair


73.0 F

Last Updated on Jul 26 2021, 11:55 pm CDT
Humidity: 85%
Wind Speed: N 0.0 mph
Barometer 30.03 in
Dewpoint: 68.7 F
Visibility: 10.00 mi
Precip: --
Heat Index: NA
Wind Chill: NA
Current conditions at:

Morris Muni-James R Washburn Field Airport, IL (KC09)

Lat: 41.43164 Lon: 88.41519

Local Radar Image active severe weather and emergency alerts image image weather storm and storm spotter reports image weather observation monitoring service image
Local
Radar
Active
Alerts
Storm Reports Obs
Monitoring

Sign-up For Email & Text Message Weather Alert Notification Services


Advertise Here

Observation History for Morris Muni-James R Washburn Field Airport, IL


Time Wind
(mph)
Vis
(mi)
Weather Precip (in) Temperature (F) Relative
Humidity
Wind
Chill
(F)
Heat
Index
(F)
Pressure
Air Dwpt altimeter
(in)
sea level
(mb)
Rmks
11:55 pm CDT N 0.0 10.00 Fair -- 73.0 68.7 85% NA NA 30.03 M
10:55 pm CDT SW 4.6 10.00 Fair -- 74.0 69.8 88% NA NA 30.02 M
9:55 pm CDT SW 3.5 10.00 Fair -- 74.0 68.9 85% NA NA 30.02 M
8:55 pm CDT SW 3.5 10.00 Fair -- 78.0 69.1 75% NA NA 30.01 M
7:55 pm CDT N 0.0 10.00 Fair -- 82.0 67.1 61% NA 85 30.00 M
6:55 pm CDT W 3.5 10.00 Fair -- 85.0 66.4 54% NA 88 30.01 M
5:55 pm CDT W 6.9 10.00 Fair -- 86.0 65.1 49% NA 88 30.01 M
4:55 pm CDT NW 5.8 10.00 Fair -- 87.0 63.7 45% NA 88 30.02 M
3:55 pm CDT N 0.0 10.00 Fair -- 88.0 64.2 46% NA 90 30.03 M
2:55 pm CDT NW 4.6 10.00 Fair -- 87.0 64.9 48% NA 89 30.04 M
1:55 pm CDT NW 3.5 10.00 Fair -- 87.0 63.5 45% NA 88 30.04 M
12:55 pm CDT N 0.0 10.00 Fair -- 88.0 63.1 44% NA 89 30.04 M
11:55 am CDT N 0.0 10.00 Fair -- 85.0 62.2 47% NA 86 30.05 M
10:55 am CDT N 0.0 10.00 Fair -- 83.0 63.9 52% NA 84 30.05 M
7:55 am CDT N 0.0 10.00 Fair -- 69.0 64.4 84% NA NA 30.04 M
7:35 am CDT N 0.0 10.00 Fair -- 68.0 63.5 87% NA NA 30.03 M
6:55 am CDT N 0.0 10.00 Fair -- 64.0 61.9 92% NA NA 30.02 M
5:55 am CDT N 0.0 10.00 Fair -- 63.0 61.2 95% NA NA 30.01 M
4:55 am CDT N 0.0 10.00 Fair -- 62.0 61.2 98% NA NA 30.00 M
3:55 am CDT N 0.0 10.00 Fair -- 65.0 63.5 94% NA NA 29.99 M
2:55 am CDT N 0.0 10.00 Fair -- 66.0 63.1 89% NA NA 29.98 M
2:00 am CDT N 3.5 10.00 Fair -- 68.0 64.9 89% NA NA 29.98 M
1:35 am CDT N 0.0 10.00 Fair -- 67.0 65.3 93% NA NA 29.99 M
12:55 am CDT N 0.0 10.00 Fair -- 68.0 65.3 91% NA NA 29.98 M

Regional Weather Observation


De Kalb Taylor Municipal Airport, IL (KDKB)

Fair
72.0 F

Morris Muni-James R Washburn Field Airport, IL (KC09)

Fair
73.0 F

Chicago / West Chicago, Dupage Airport, IL (KDPA)

Fair
74.0 F

Joliet Regional Airport, IL (KJOT)

Fair
71.0 F

Lewis University Airport, IL (KLOT)

Fair
72.0 F

Schaumburg Regional Airport, IL (K06C)

Fair
74.0 F
Advertise Here

Advertise Here